Location: Couloutre
(47.4081°N, 3.2259°E)
Time: 04:41:13
(UTC+00:00)

STARLINK-1016 - Pass Details

Date: 27 February 2020
Orbit: 548 x 551 km, 53.0° (Epoch: 29 March)

Event Time Altitude Azimuth Distance (km) Brightness Sun altitude
Rises 18:32:12 0° 281° (W) 2,712 9.1 -11.6°
Reaches altitude 10° 18:34:34 10° 290° (WNW) 1,818 7.5 -12.0°
Maximum altitude 18:38:25 37° 359° (N) 865 4.6 -12.6°
Enters shadow 18:41:11 17° 60° (ENE) 1,442 5.2 -13.1°
